{"data":{"norad_id":68149,"intl_designator":"2026-049H","name":"STARLINK-36992","alt_names":[],"object_type":"PAYLOAD","status":"ACTIVE","operator":null,"country":"US","launch_date":"2026-03-13","launch_site_code":"AFWTR","launch_vehicle":null,"mission":null,"orbit_class":"UNKNOWN","rcs_meters":null,"size_class":null,"mass_kg":null,"dimensions":null,"purposes":["comms"],"wikipedia_slug":null,"has_3d_model":false,"image_url":null,"decayed_at":null,"tle_current":{"epoch":"2026-05-24T23:44:05.699904Z","epoch_age_seconds":76087,"freshness":"FRESH","line1":"1 68149U 26049H   26144.98895486  .00014596  00000+0  45339-3 0  9994","line2":"2 68149  97.2854 166.7007 0001911 106.1525 253.9928 15.33456130 11342","mean_motion":15.3345613,"eccentricity":0.0001911,"inclination_deg":97.2854,"raan_deg":166.7007,"arg_perigee_deg":106.1525,"mean_anomaly_deg":253.9928,"bstar":0.00045339,"rev_number":1134,"period_min":93.90552307486,"perigee_km":464.20223867595,"apogee_km":466.81788058214,"semimajor_km":6843.647059629,"source":"CELESTRAK","updated_at":"2026-05-25T13:38:21.847776Z"}}}